| time (UTC) | temp F | wind direction | speed MPH | gust MPH | rain 1hr in | rain 24hr in | rain mn in | humidity % | barometer mb |
| 20260902053040 | 53 | 313 | 5.0 | 12.0 | 0.00 | 0.00 | 0.00 | 75 | 1015.3 |
| 20260902052534 | 53 | 311 | 5.0 | 12.0 | 0.00 | 0.00 | 0.00 | 75 | 1015.3 |
| 20260902052028 | 54 | 314 | 5.0 | 14.0 | 0.00 | 0.00 | 0.00 | 75 | 1015.3 |
| 20260902051522 | 54 | 307 | 8.0 | 15.0 | 0.00 | 0.00 | 0.00 | 75 | 1015.3 |
| 20260902051016 | 54 | 312 | 6.0 | 15.0 | 0.00 | 0.00 | 0.00 | 75 | 1015.3 |
| 20260902050510 | 53 | 300 | 5.0 | 14.0 | 0.00 | 0.00 | 0.00 | 75 | 1015.3 |
| 20260902050007 | 54 | 303 | 7.0 | 13.0 | 0.00 | 0.00 | 0.00 | 75 | 1015.3 |
| 20260902045458 | 54 | 308 | 6.0 | 14.0 | 0.00 | 0.00 | 0.00 | 75 | 1015.1 |
| 20260902044952 | 54 | 305 | 8.0 | 18.0 | 0.00 | 0.00 | 0.00 | 75 | 1015.1 |
| 20260902044446 | 54 | 298 | 9.0 | 18.0 | 0.00 | 0.00 | 0.00 | 75 | 1015.0 |
| 20260902043940 | 54 | 305 | 5.0 | 16.0 | 0.00 | 0.00 | 0.00 | 75 | 1015.0 |
| 20260902043434 | 54 | 308 | 6.0 | 16.0 | 0.00 | 0.00 | 0.00 | 75 | 1015.0 |
| 20260902042928 | 54 | 306 | 5.0 | 18.0 | 0.00 | 0.00 | 0.00 | 75 | 1014.9 |
| 20260902042422 | 54 | 314 | 6.0 | 18.0 | 0.00 | 0.00 | 0.00 | 75 | 1014.9 |
| 20260902041916 | 54 | 303 | 7.0 | 15.0 | 0.00 | 0.00 | 0.00 | 75 | 1014.9 |
| 20260902041410 | 54 | 307 | 6.0 | 15.0 | 0.00 | 0.00 | 0.00 | 75 | 1014.9 |
| 20260902040904 | 54 | 304 | 5.0 | 16.0 | 0.00 | 0.00 | 0.00 | 75 | 1014.8 |
| 20260902040358 | 54 | 303 | 8.0 | 16.0 | 0.00 | 0.00 | 0.00 | 75 | 1014.7 |
| 20260902035852 | 54 | 303 | 8.0 | 16.0 | 0.00 | 0.00 | 0.00 | 75 | 1014.6 |
| 20260902035346 | 54 | 313 | 3.0 | 12.0 | 0.00 | 0.00 | 0.00 | 75 | 1014.6 |
| 20260902034840 | 54 | 304 | 5.0 | 14.0 | 0.00 | 0.00 | 0.00 | 75 | 1014.6 |
| 20260902034334 | 54 | 302 | 6.0 | 14.0 | 0.00 | 0.00 | 0.00 | 75 | 1014.6 |
| 20260902033828 | 54 | 304 | 6.0 | 14.0 | 0.00 | 0.00 | 0.00 | 75 | 1014.5 |
| 20260902033322 | 54 | 301 | 4.0 | 14.0 | 0.00 | 0.00 | 0.00 | 75 | 1014.4 |
| 20260902032816 | 54 | 307 | 6.0 | 16.0 | 0.00 | 0.00 | 0.00 | 75 | 1014.5 |
| 20260902032310 | 54 | 291 | 7.0 | 16.0 | 0.00 | 0.00 | 0.00 | 75 | 1014.4 |
| 20260902031804 | 54 | 287 | 6.0 | 16.0 | 0.00 | 0.00 | 0.00 | 76 | 1014.3 |
| 20260902031258 | 54 | 285 | 7.0 | 17.0 | 0.00 | 0.00 | 0.00 | 76 | 1014.3 |
| 20260902030752 | 54 | 284 | 10.0 | 20.0 | 0.00 | 0.00 | 0.00 | 76 | 1014.2 |
| 20260902030246 | 54 | 282 | 12.0 | 20.0 | 0.00 | 0.00 | 0.00 | 76 | 1014.2 |
| 20260902025740 | 54 | 285 | 10.0 | 19.0 | 0.00 | 0.00 | 0.00 | 76 | 1014.2 |
| 20260902025234 | 54 | 284 | 10.0 | 18.0 | 0.00 | 0.00 | 0.00 | 76 | 1014.2 |
| 20260902024728 | 54 | 286 | 10.0 | 19.0 | 0.00 | 0.00 | 0.00 | 76 | 1014.1 |
| 20260902024222 | 54 | 286 | 12.0 | 20.0 | 0.00 | 0.00 | 0.00 | 76 | 1014.0 |
| 20260902023716 | 54 | 280 | 11.0 | 20.0 | 0.00 | 0.00 | 0.00 | 76 | 1014.0 |
| 20260902023210 | 54 | 282 | 11.0 | 20.0 | 0.00 | 0.00 | 0.00 | 76 | 1014.0 |
| 20260902022704 | 54 | 274 | 12.0 | 21.0 | 0.00 | 0.00 | 0.00 | 76 | 1014.0 |
| 20260902022158 | 54 | 280 | 14.0 | 21.0 | 0.00 | 0.00 | 0.00 | 76 | 1013.9 |
| 20260902021652 | 55 | 281 | 15.0 | 22.0 | 0.00 | 0.00 | 0.00 | 76 | 1013.9 |
| 20260902021146 | 55 | 284 | 13.0 | 22.0 | 0.00 | 0.00 | 0.00 | 76 | 1014.0 |
| 20260902020640 | 55 | 284 | 11.0 | 22.0 | 0.00 | 0.00 | 0.00 | 76 | 1014.0 |
| 20260902020134 | 55 | 278 | 15.0 | 24.0 | 0.00 | 0.00 | 0.00 | 76 | 1013.9 |
| 20260902015628 | 56 | 283 | 13.0 | 24.0 | 0.00 | 0.00 | 0.00 | 76 | 1013.8 |
| 20260902015122 | 56 | 277 | 11.0 | 21.0 | 0.00 | 0.00 | 0.00 | 76 | 1013.8 |
| 20260902014616 | 56 | 280 | 15.0 | 21.0 | 0.00 | 0.00 | 0.00 | 76 | 1013.8 |
| 20260902014110 | 57 | 280 | 16.0 | 19.0 | 0.00 | 0.00 | 0.00 | 76 | 1013.9 |
| 20260902013604 | 57 | 277 | 11.0 | 19.0 | 0.00 | 0.00 | 0.00 | 76 | 1013.8 |
| 20260902013058 | 57 | 280 | 12.0 | 18.0 | 0.00 | 0.00 | 0.00 | 76 | 1013.9 |
| 20260902012552 | 59 | 268 | 7.0 | 20.0 | 0.00 | 0.00 | 0.00 | 76 | 1013.9 |
| 20260902012046 | 58 | 278 | 12.0 | 20.0 | 0.00 | 0.00 | 0.00 | 76 | 1013.9 |
| 20260902011540 | 59 | 275 | 11.0 | 20.0 | 0.00 | 0.00 | 0.00 | 76 | 1013.9 |
| 20260902011034 | 60 | 271 | 9.0 | 21.0 | 0.00 | 0.00 | 0.00 | 76 | 1013.9 |
| 20260902010528 | 60 | 269 | 9.0 | 21.0 | 0.00 | 0.00 | 0.00 | 76 | 1013.9 |
| 20260902010022 | 60 | 270 | 11.0 | 20.0 | 0.00 | 0.00 | 0.00 | 76 | 1013.9 |
| 20260902005516 | 60 | 272 | 13.0 | 20.0 | 0.00 | 0.00 | 0.00 | 76 | 1013.8 |
| 20260902005010 | 62 | 266 | 6.0 | 19.0 | 0.00 | 0.00 | 0.00 | 76 | 1013.9 |
| 20260902004504 | 61 | 270 | 9.0 | 25.0 | 0.00 | 0.00 | 0.00 | 76 | 1013.9 |
| 20260902003958 | 60 | 272 | 14.0 | 25.0 | 0.00 | 0.00 | 0.00 | 77 | 1013.9 |
| 20260902003452 | 62 | 267 | 9.0 | 20.0 | 0.00 | 0.00 | 0.00 | 77 | 1013.7 |
| 20260902002946 | 62 | 264 | 7.0 | 21.0 | 0.00 | 0.00 | 0.00 | 77 | 1013.8 |
| 20260902002440 | 62 | 269 | 10.0 | 21.0 | 0.00 | 0.00 | 0.00 | 77 | 1013.8 |
| 20260902001934 | 62 | 268 | 8.0 | 21.0 | 0.00 | 0.00 | 0.00 | 77 | 1013.8 |
| 20260902001428 | 62 | 273 | 9.0 | 22.0 | 0.00 | 0.00 | 0.00 | 77 | 1013.7 |
| 20260902000922 | 62 | 272 | 10.0 | 22.0 | 0.00 | 0.00 | 0.00 | 77 | 1013.7 |
| 20260902000416 | 63 | 268 | 6.0 | 20.0 | 0.00 | 0.00 | 0.00 | 77 | 1013.9 |
| 20260901235910 | 63 | 266 | 8.0 | 20.0 | 0.00 | 0.00 | 0.00 | 77 | 1013.9 |
| 20260901235404 | 63 | 256 | 5.0 | 18.0 | 0.00 | 0.00 | 0.00 | 77 | 1013.9 |
| 20260901234858 | 63 | 263 | 6.0 | 20.0 | 0.00 | 0.00 | 0.00 | 77 | 1013.9 |
| 20260901234352 | 64 | 267 | 5.0 | 20.0 | 0.00 | 0.00 | 0.00 | 77 | 1014.0 |
| 20260901233846 | 63 | 270 | 9.0 | 19.0 | 0.00 | 0.00 | 0.00 | 77 | 1014.0 |
| 20260901233340 | 63 | 273 | 9.0 | 19.0 | 0.00 | 0.00 | 0.00 | 77 | 1014.1 |
| 20260901232834 | 64 | 271 | 7.0 | 19.0 | 0.00 | 0.00 | 0.00 | 77 | 1014.1 |
| 20260901232328 | 64 | 269 | 9.0 | 22.0 | 0.00 | 0.00 | 0.00 | 77 | 1014.0 |
| 20260901231822 | 64 | 270 | 9.0 | 22.0 | 0.00 | 0.00 | 0.00 | 77 | 1014.1 |
| 20260901231316 | 64 | 270 | 9.0 | 22.0 | 0.00 | 0.00 | 0.00 | 77 | 1014.2 |
| 20260901230810 | 64 | 276 | 8.0 | 22.0 | 0.00 | 0.00 | 0.00 | 77 | 1014.2 |
| 20260901230304 | 63 | 274 | 11.0 | 20.0 | 0.00 | 0.00 | 0.00 | 77 | 1014.3 |
| 20260901225758 | 64 | 272 | 10.0 | 24.0 | 0.00 | 0.00 | 0.00 | 77 | 1014.2 |
| 20260901225252 | 64 | 264 | 8.0 | 24.0 | 0.00 | 0.00 | 0.00 | 77 | 1014.4 |
| 20260901224746 | 63 | 270 | 11.0 | 26.0 | 0.00 | 0.00 | 0.00 | 77 | 1014.3 |
| 20260901224240 | 62 | 276 | 14.0 | 26.0 | 0.00 | 0.00 | 0.00 | 77 | 1014.3 |
| 20260901223734 | 63 | 272 | 15.0 | 24.0 | 0.00 | 0.00 | 0.00 | 77 | 1014.3 |
| 20260901223228 | 65 | 273 | 11.0 | 23.0 | 0.00 | 0.00 | 0.00 | 77 | 1014.3 |
| 20260901222722 | 64 | 277 | 11.0 | 23.0 | 0.00 | 0.00 | 0.00 | 77 | 1014.4 |
| 20260901222216 | 65 | 262 | 6.0 | 19.0 | 0.00 | 0.00 | 0.00 | 77 | 1014.4 |
| 20260901221710 | 65 | 277 | 10.0 | 19.0 | 0.00 | 0.00 | 0.00 | 77 | 1014.5 |
| 20260901221204 | 65 | 272 | 9.0 | 24.0 | 0.00 | 0.00 | 0.00 | 77 | 1014.5 |
| 20260901220658 | 64 | 272 | 10.0 | 24.0 | 0.00 | 0.00 | 0.00 | 77 | 1014.4 |
| 20260901220152 | 65 | 270 | 7.0 | 21.0 | 0.00 | 0.00 | 0.00 | 77 | 1014.5 |
| 20260901215646 | 65 | 275 | 9.0 | 22.0 | 0.00 | 0.00 | 0.00 | 77 | 1014.6 |
| 20260901215140 | 64 | 274 | 11.0 | 22.0 | 0.00 | 0.00 | 0.00 | 77 | 1014.5 |
| 20260901214634 | 65 | 273 | 9.0 | 23.0 | 0.00 | 0.00 | 0.00 | 77 | 1014.6 |
| 20260901214128 | 64 | 270 | 13.0 | 23.0 | 0.00 | 0.00 | 0.00 | 77 | 1014.6 |
| 20260901213622 | 63 | 273 | 14.0 | 28.0 | 0.00 | 0.00 | 0.00 | 77 | 1014.6 |
| 20260901213116 | 63 | 275 | 14.0 | 28.0 | 0.00 | 0.00 | 0.00 | 77 | 1014.7 |
| 20260901212610 | 65 | 272 | 8.0 | 22.0 | 0.00 | 0.00 | 0.00 | 77 | 1014.5 |
| 20260901212104 | 65 | 273 | 10.0 | 22.0 | 0.00 | 0.00 | 0.00 | 77 | 1014.7 |
| 20260901211558 | 65 | 268 | 11.0 | 25.0 | 0.00 | 0.00 | 0.00 | 77 | 1014.6 |
| 20260901211052 | 65 | 270 | 11.0 | 25.0 | 0.00 | 0.00 | 0.00 | 77 | 1014.7 |
| 20260901210546 | 66 | 271 | 9.0 | 22.0 | 0.00 | 0.00 | 0.00 | 77 | 1014.7 |
| 20260901210040 | 65 | 269 | 10.0 | 20.0 | 0.00 | 0.00 | 0.00 | 77 | 1014.8 |
| 20260901205534 | 65 | 264 | 9.0 | 20.0 | 0.00 | 0.00 | 0.00 | 77 | 1014.8 |
| 20260901205028 | 66 | 270 | 9.0 | 20.0 | 0.00 | 0.00 | 0.00 | 77 | 1014.8 |
| 20260901204522 | 66 | 261 | 5.0 | 21.0 | 0.00 | 0.00 | 0.00 | 77 | 1014.8 |
| 20260901204016 | 66 | 270 | 8.0 | 22.0 | 0.00 | 0.00 | 0.00 | 76 | 1014.8 |
| 20260901203510 | 65 | 268 | 9.0 | 24.0 | 0.00 | 0.00 | 0.00 | 76 | 1014.8 |
| 20260901203004 | 66 | 264 | 8.0 | 24.0 | 0.00 | 0.00 | 0.00 | 77 | 1014.7 |
| 20260901202458 | 65 | 276 | 9.0 | 21.0 | 0.00 | 0.00 | 0.00 | 77 | 1014.9 |
| 20260901201952 | 65 | 272 | 11.0 | 22.0 | 0.00 | 0.00 | 0.00 | 76 | 1014.8 |
| 20260901201446 | 65 | 260 | 8.0 | 20.0 | 0.00 | 0.00 | 0.00 | 77 | 1014.8 |
| 20260901200940 | 66 | 272 | 8.0 | 18.0 | 0.00 | 0.00 | 0.00 | 76 | 1014.9 |
| 20260901200434 | 66 | 267 | 8.0 | 23.0 | 0.00 | 0.00 | 0.00 | 76 | 1014.9 |
| 20260901195928 | 66 | 266 | 7.0 | 23.0 | 0.00 | 0.00 | 0.00 | 76 | 1015.0 |
| 20260901195422 | 65 | 280 | 8.0 | 20.0 | 0.00 | 0.00 | 0.00 | 76 | 1014.9 |
| 20260901194916 | 66 | 278 | 7.0 | 18.0 | 0.00 | 0.00 | 0.00 | 76 | 1015.0 |
| 20260901194410 | 66 | 279 | 8.0 | 17.0 | 0.00 | 0.00 | 0.00 | 76 | 1014.9 |
| 20260901193904 | 67 | 282 | 3.0 | 15.0 | 0.00 | 0.00 | 0.00 | 76 | 1015.0 |
| 20260901193358 | 67 | 279 | 5.0 | 14.0 | 0.00 | 0.00 | 0.00 | 76 | 1015.0 |
| 20260901192852 | 67 | 272 | 6.0 | 14.0 | 0.00 | 0.00 | 0.00 | 76 | 1015.2 |
| 20260901192346 | 68 | 261 | 2.0 | 11.0 | 0.00 | 0.00 | 0.00 | 76 | 1015.3 |
| 20260901191840 | 67 | 273 | 4.0 | 17.0 | 0.00 | 0.00 | 0.00 | 76 | 1015.2 |
| 20260901191334 | 66 | 303 | 2.0 | 17.0 | 0.00 | 0.00 | 0.00 | 76 | 1015.3 |
| 20260901190828 | 65 | 296 | 3.0 | 19.0 | 0.00 | 0.00 | 0.00 | 76 | 1015.3 |
| 20260901190322 | 65 | 281 | 5.0 | 19.0 | 0.00 | 0.00 | 0.00 | 76 | 1015.3 |
| 20260901185816 | 66 | 277 | 3.0 | 12.0 | 0.00 | 0.00 | 0.00 | 76 | 1015.3 |
| 20260901185310 | 64 | 293 | 5.0 | 12.0 | 0.00 | 0.00 | 0.00 | 76 | 1015.3 |
| 20260901184804 | 64 | 294 | 3.0 | 11.0 | 0.00 | 0.00 | 0.00 | 75 | 1015.3 |
| 20260901184259 | 65 | 299 | 4.0 | 11.0 | 0.00 | 0.00 | 0.00 | 76 | 1015.2 |
| 20260901183752 | 66 | 303 | 3.0 | 11.0 | 0.00 | 0.00 | 0.00 | 76 | 1015.3 |
| 20260901183246 | 64 | 312 | 4.0 | 11.0 | 0.00 | 0.00 | 0.00 | 75 | 1015.3 |
| 20260901182740 | 65 | 342 | 3.0 | 14.0 | 0.00 | 0.00 | 0.00 | 75 | 1015.3 |
| 20260901182234 | 66 | 308 | 2.0 | 14.0 | 0.00 | 0.00 | 0.00 | 75 | 1015.4 |
| 20260901181728 | 64 | 316 | 3.0 | 12.0 | 0.00 | 0.00 | 0.00 | 75 | 1015.3 |
| 20260901181222 | 65 | 323 | 1.0 | 0.0 | 0.00 | 0.00 | 0.00 | 75 | 1015.4 |
| 20260901180716 | 64 | 334 | 2.0 | 0.0 | 0.00 | 0.00 | 0.00 | 75 | 1015.3 |
| 20260901180210 | 63 | 298 | 2.0 | 13.0 | 0.00 | 0.00 | 0.00 | 75 | 1015.3 |
| 20260901175704 | 63 | 315 | 4.0 | 13.0 | 0.00 | 0.00 | 0.00 | 75 | 1015.3 |
| 20260901175158 | 63 | 310 | 3.0 | 0.0 | 0.00 | 0.00 | 0.00 | 75 | 1015.3 |
| 20260901174652 | 63 | 329 | 3.0 | 0.0 | 0.00 | 0.00 | 0.00 | 75 | 1015.3 |
| 20260901174146 | 64 | 6 | 2.0 | 0.0 | 0.00 | 0.00 | 0.00 | 75 | 1015.2 |
| 20260901173640 | 64 | 325 | 2.0 | 10.0 | 0.00 | 0.00 | 0.00 | 75 | 1015.2 |
| 20260901173134 | 63 | 319 | 1.0 | 10.0 | 0.00 | 0.00 | 0.00 | 75 | 1015.2 |
| 20260901172628 | 62 | 325 | 3.0 | 0.0 | 0.00 | 0.00 | 0.00 | 75 | 1015.0 |
| 20260901172122 | 63 | 319 | 2.0 | 0.0 | 0.00 | 0.00 | 0.00 | 75 | 1015.1 |
| 20260901171616 | 62 | 329 | 1.0 | 0.0 | 0.00 | 0.00 | 0.00 | 74 | 1015.0 |
| 20260901171110 | 63 | 23 | 0.0 | 0.0 | 0.00 | 0.00 | 0.00 | 74 | 1015.0 |
| 20260901170604 | 62 | 308 | 3.0 | 0.0 | 0.00 | 0.00 | 0.00 | 74 | 1015.1 |
| 20260901170058 | 62 | 314 | 2.0 | 0.0 | 0.00 | 0.00 | 0.00 | 75 | 1015.1 |
| 20260901165552 | 63 | 17 | 1.0 | 0.0 | 0.00 | 0.00 | 0.00 | 75 | 1015.0 |
| 20260901165046 | 63 | 26 | 1.0 | 0.0 | 0.00 | 0.00 | 0.00 | 74 | 1015.1 |
| 20260901164540 | 61 | 339 | 1.0 | 0.0 | 0.00 | 0.00 | 0.00 | 74 | 1015.0 |
| 20260901164034 | 60 | 337 | 2.0 | 0.0 | 0.00 | 0.00 | 0.00 | 74 | 1015.0 |
| 20260901163528 | 61 | 336 | 1.0 | 0.0 | 0.00 | 0.00 | 0.00 | 74 | 1014.9 |
| 20260901163022 | 60 | 331 | 3.0 | 0.0 | 0.00 | 0.00 | 0.00 | 74 | 1014.9 |
| 20260901162516 | 61 | 336 | 2.0 | 0.0 | 0.00 | 0.00 | 0.00 | 74 | 1014.9 |
| 20260901162010 | 60 | 342 | 2.0 | 0.0 | 0.00 | 0.00 | 0.00 | 74 | 1014.9 |
| 20260901161504 | 60 | 342 | 1.0 | 0.0 | 0.00 | 0.00 | 0.00 | 74 | 1014.8 |
| 20260901160958 | 60 | 336 | 1.0 | 0.0 | 0.00 | 0.00 | 0.00 | 74 | 1014.8 |
| 20260901160452 | 59 | 334 | 2.0 | 0.0 | 0.00 | 0.00 | 0.00 | 74 | 1014.8 |
| 20260901155946 | 59 | 352 | 2.0 | 0.0 | 0.00 | 0.00 | 0.00 | 74 | 1014.8 |
| 20260901155440 | 59 | 346 | 1.0 | 0.0 | 0.00 | 0.00 | 0.00 | 74 | 1014.7 |
| 20260901154934 | 58 | 338 | 1.0 | 0.0 | 0.00 | 0.00 | 0.00 | 74 | 1014.7 |
| 20260901154428 | 58 | 337 | 2.0 | 0.0 | 0.00 | 0.00 | 0.00 | 74 | 1014.6 |
| 20260901153922 | 58 | 345 | 1.0 | 0.0 | 0.00 | 0.00 | 0.00 | 74 | 1014.6 |
| 20260901153416 | 57 | 346 | 2.0 | 0.0 | 0.00 | 0.00 | 0.00 | 74 | 1014.6 |
| 20260901152910 | 58 | 343 | 2.0 | 0.0 | 0.00 | 0.00 | 0.00 | 74 | 1014.6 |
| 20260901152404 | 58 | 341 | 1.0 | 0.0 | 0.00 | 0.00 | 0.00 | 74 | 1014.6 |
| 20260901151858 | 57 | 353 | 2.0 | 0.0 | 0.00 | 0.00 | 0.00 | 74 | 1014.5 |
| 20260901151352 | 56 | 345 | 2.0 | 0.0 | 0.00 | 0.00 | 0.00 | 74 | 1014.6 |
| 20260901150846 | 56 | 3 | 1.0 | 0.0 | 0.00 | 0.00 | 0.00 | 74 | 1014.6 |
| 20260901150340 | 55 | 348 | 1.0 | 0.0 | 0.00 | 0.00 | 0.00 | 74 | 1014.5 |
| 20260901145834 | 54 | 339 | 1.0 | 0.0 | 0.00 | 0.00 | 0.00 | 74 | 1014.5 |
| 20260901145328 | 54 | 330 | 1.0 | 0.0 | 0.00 | 0.00 | 0.00 | 74 | 1014.4 |
| 20260901144822 | 54 | 350 | 1.0 | 0.0 | 0.00 | 0.00 | 0.00 | 74 | 1014.5 |
| 20260901144316 | 53 | 342 | 2.0 | 0.0 | 0.00 | 0.00 | 0.00 | 74 | 1014.4 |
| 20260901143810 | 53 | 326 | 1.0 | 0.0 | 0.00 | 0.00 | 0.00 | 73 | 1014.3 |
| 20260901143304 | 53 | 330 | 2.0 | 0.0 | 0.00 | 0.00 | 0.00 | 73 | 1014.3 |
| 20260901142758 | 53 | 332 | 3.0 | 0.0 | 0.00 | 0.00 | 0.00 | 73 | 1014.4 |
| 20260901142252 | 52 | 320 | 1.0 | 0.0 | 0.00 | 0.00 | 0.00 | 73 | 1014.3 |
| 20260901141746 | 52 | 318 | 2.0 | 0.0 | 0.00 | 0.00 | 0.00 | 73 | 1014.3 |
| 20260901141241 | 51 | 315 | 2.0 | 0.0 | 0.00 | 0.00 | 0.00 | 73 | 1014.2 |
| 20260901140734 | 51 | 316 | 2.0 | 0.0 | 0.00 | 0.00 | 0.00 | 73 | 1014.2 |
| 20260901140228 | 51 | 316 | 2.0 | 0.0 | 0.00 | 0.00 | 0.00 | 73 | 1014.1 |
| 20260901135722 | 51 | 313 | 3.0 | 0.0 | 0.00 | 0.00 | 0.00 | 73 | 1014.0 |
| 20260901135216 | 51 | 315 | 2.0 | 0.0 | 0.00 | 0.00 | 0.00 | 73 | 1014.0 |
| 20260901134710 | 50 | 317 | 2.0 | 0.0 | 0.00 | 0.00 | 0.00 | 73 | 1014.0 |
| 20260901134204 | 50 | 314 | 1.0 | 0.0 | 0.00 | 0.00 | 0.00 | 73 | 1014.0 |
| 20260901133658 | 50 | 316 | 3.0 | 11.0 | 0.00 | 0.00 | 0.00 | 74 | 1014.0 |
| 20260901133152 | 50 | 319 | 3.0 | 11.0 | 0.00 | 0.00 | 0.00 | 74 | 1014.0 |
| 20260901132646 | 50 | 320 | 3.0 | 10.0 | 0.00 | 0.00 | 0.00 | 74 | 1014.0 |
| 20260901132140 | 50 | 306 | 1.0 | 10.0 | 0.00 | 0.00 | 0.00 | 74 | 1013.9 |
| 20260901131634 | 51 | 310 | 4.0 | 11.0 | 0.00 | 0.00 | 0.00 | 74 | 1013.8 |
| 20260901131128 | 51 | 314 | 3.0 | 11.0 | 0.00 | 0.00 | 0.00 | 74 | 1013.8 |
| 20260901130622 | 51 | 309 | 3.0 | 0.0 | 0.00 | 0.00 | 0.00 | 74 | 1013.8 |
| 20260901130116 | 51 | 313 | 3.0 | 0.0 | 0.00 | 0.00 | 0.00 | 74 | 1013.8 |
| 20260901125610 | 51 | 305 | 3.0 | 0.0 | 0.00 | 0.00 | 0.00 | 74 | 1013.8 |
| 20260901125104 | 51 | 313 | 4.0 | 0.0 | 0.00 | 0.00 | 0.00 | 74 | 1013.7 |
| 20260901124558 | 51 | 312 | 3.0 | 0.0 | 0.00 | 0.00 | 0.00 | 74 | 1013.7 |
| 20260901124052 | 51 | 322 | 3.0 | 0.0 | 0.00 | 0.00 | 0.00 | 74 | 1013.7 |
| 20260901123546 | 51 | 302 | 1.0 | 11.0 | 0.00 | 0.00 | 0.00 | 74 | 1013.6 |
| 20260901123040 | 51 | 310 | 2.0 | 11.0 | 0.00 | 0.00 | 0.00 | 74 | 1013.6 |
| 20260901122534 | 51 | 324 | 2.0 | 0.0 | 0.00 | 0.00 | 0.00 | 74 | 1013.6 |
| 20260901122028 | 51 | 320 | 3.0 | 10.0 | 0.00 | 0.00 | 0.00 | 74 | 1013.7 |
| 20260901121522 | 51 | 315 | 3.0 | 10.0 | 0.00 | 0.00 | 0.00 | 74 | 1013.6 |
| 20260901121016 | 51 | 318 | 2.0 | 0.0 | 0.00 | 0.00 | 0.00 | 74 | 1013.7 |
| 20260901120510 | 51 | 314 | 3.0 | 0.0 | 0.00 | 0.00 | 0.00 | 74 | 1013.6 |
| 20260901120004 | 51 | 314 | 2.0 | 0.0 | 0.00 | 0.00 | 0.00 | 74 | 1013.6 |
| 20260901115458 | 51 | 309 | 2.0 | 0.0 | 0.00 | 0.00 | 0.00 | 74 | 1013.6 |
| 20260901114952 | 51 | 309 | 3.0 | 0.0 | 0.00 | 0.00 | 0.00 | 74 | 1013.6 |
| 20260901114446 | 51 | 315 | 3.0 | 0.0 | 0.00 | 0.00 | 0.00 | 74 | 1013.6 |
| 20260901113940 | 51 | 300 | 4.0 | 0.0 | 0.00 | 0.00 | 0.00 | 74 | 1013.6 |
| 20260901113434 | 51 | 308 | 4.0 | 0.0 | 0.00 | 0.00 | 0.00 | 74 | 1013.6 |
| 20260901112928 | 51 | 319 | 3.0 | 11.0 | 0.00 | 0.00 | 0.00 | 74 | 1013.6 |
| 20260901112422 | 51 | 313 | 4.0 | 11.0 | 0.00 | 0.00 | 0.00 | 74 | 1013.5 |
| 20260901111916 | 50 | 314 | 3.0 | 0.0 | 0.00 | 0.00 | 0.00 | 74 | 1013.5 |
| 20260901111410 | 51 | 323 | 2.0 | 0.0 | 0.00 | 0.00 | 0.00 | 74 | 1013.5 |
| 20260901110904 | 51 | 317 | 2.0 | 0.0 | 0.00 | 0.00 | 0.00 | 74 | 1013.4 |
| 20260901110358 | 51 | 318 | 2.0 | 13.0 | 0.00 | 0.00 | 0.00 | 74 | 1013.3 |
| 20260901105852 | 51 | 322 | 1.0 | 13.0 | 0.00 | 0.00 | 0.00 | 74 | 1013.3 |
| 20260901105346 | 51 | 310 | 3.0 | 0.0 | 0.00 | 0.00 | 0.00 | 74 | 1013.3 |
| 20260901104840 | 51 | 316 | 3.0 | 0.0 | 0.00 | 0.00 | 0.00 | 74 | 1013.4 |
| 20260901104334 | 51 | 313 | 2.0 | 0.0 | 0.00 | 0.00 | 0.00 | 74 | 1013.4 |
| 20260901103828 | 51 | 311 | 4.0 | 0.0 | 0.00 | 0.00 | 0.00 | 74 | 1013.4 |
| 20260901103322 | 51 | 314 | 3.0 | 0.0 | 0.00 | 0.00 | 0.00 | 74 | 1013.4 |
| 20260901102816 | 51 | 313 | 3.0 | 0.0 | 0.00 | 0.00 | 0.00 | 74 | 1013.4 |
| 20260901102310 | 51 | 315 | 2.0 | 0.0 | 0.00 | 0.00 | 0.00 | 74 | 1013.3 |
| 20260901101804 | 51 | 313 | 3.0 | 0.0 | 0.00 | 0.00 | 0.00 | 74 | 1013.4 |
| 20260901101258 | 51 | 308 | 3.0 | 0.0 | 0.00 | 0.00 | 0.00 | 74 | 1013.4 |
| 20260901100752 | 51 | 307 | 4.0 | 0.0 | 0.00 | 0.00 | 0.00 | 74 | 1013.4 |
| 20260901100246 | 51 | 305 | 2.0 | 0.0 | 0.00 | 0.00 | 0.00 | 74 | 1013.5 |
| 20260901095740 | 52 | 305 | 4.0 | 0.0 | 0.00 | 0.00 | 0.00 | 74 | 1013.5 |
| 20260901095234 | 51 | 324 | 1.0 | 0.0 | 0.00 | 0.00 | 0.00 | 74 | 1013.5 |
| 20260901094728 | 51 | 310 | 2.0 | 10.0 | 0.00 | 0.00 | 0.00 | 74 | 1013.6 |
| 20260901094222 | 52 | 304 | 4.0 | 10.0 | 0.00 | 0.00 | 0.00 | 74 | 1013.5 |
| 20260901093716 | 51 | 312 | 4.0 | 0.0 | 0.00 | 0.00 | 0.00 | 74 | 1013.5 |
| 20260901093210 | 52 | 304 | 2.0 | 11.0 | 0.00 | 0.00 | 0.00 | 74 | 1013.6 |
| 20260901092704 | 51 | 302 | 3.0 | 11.0 | 0.00 | 0.00 | 0.00 | 74 | 1013.6 |
| 20260901092158 | 52 | 295 | 4.0 | 14.0 | 0.00 | 0.00 | 0.00 | 74 | 1013.5 |
| 20260901091652 | 51 | 291 | 6.0 | 14.0 | 0.00 | 0.00 | 0.00 | 74 | 1013.4 |
| 20260901091146 | 52 | 299 | 2.0 | 0.0 | 0.00 | 0.00 | 0.00 | 74 | 1013.5 |
| 20260901090640 | 51 | 308 | 3.0 | 0.0 | 0.00 | 0.00 | 0.00 | 74 | 1013.5 |
| 20260901090134 | 51 | 305 | 2.0 | 0.0 | 0.00 | 0.00 | 0.00 | 74 | 1013.5 |
| 20260901085628 | 51 | 302 | 1.0 | 0.0 | 0.00 | 0.00 | 0.00 | 74 | 1013.5 |
| 20260901085122 | 51 | 313 | 2.0 | 0.0 | 0.00 | 0.00 | 0.00 | 74 | 1013.5 |
| 20260901084616 | 51 | 307 | 4.0 | 0.0 | 0.00 | 0.00 | 0.00 | 74 | 1013.5 |
| 20260901084110 | 51 | 311 | 3.0 | 10.0 | 0.00 | 0.00 | 0.00 | 74 | 1013.6 |
| 20260901083604 | 51 | 299 | 4.0 | 10.0 | 0.00 | 0.00 | 0.00 | 74 | 1013.5 |
| 20260901083058 | 51 | 312 | 2.0 | 0.0 | 0.00 | 0.00 | 0.00 | 74 | 1013.6 |
| 20260901082552 | 51 | 316 | 3.0 | 0.0 | 0.00 | 0.00 | 0.00 | 74 | 1013.5 |
| 20260901082046 | 51 | 318 | 2.0 | 0.0 | 0.00 | 0.00 | 0.00 | 74 | 1013.5 |
| 20260901081540 | 51 | 314 | 3.0 | 0.0 | 0.00 | 0.00 | 0.00 | 74 | 1013.5 |
| 20260901081034 | 51 | 308 | 2.0 | 0.0 | 0.00 | 0.00 | 0.00 | 74 | 1013.4 |
| 20260901080528 | 51 | 313 | 2.0 | 0.0 | 0.00 | 0.00 | 0.00 | 74 | 1013.5 |
| 20260901080022 | 51 | 309 | 2.0 | 0.0 | 0.00 | 0.00 | 0.00 | 74 | 1013.4 |
| 20260901075516 | 51 | 306 | 2.0 | 0.0 | 0.00 | 0.00 | 0.00 | 74 | 1013.4 |
| 20260901075010 | 52 | 318 | 1.0 | 0.0 | 0.00 | 0.00 | 0.00 | 74 | 1013.5 |
| 20260901074504 | 52 | 306 | 4.0 | 13.0 | 0.00 | 0.00 | 0.00 | 74 | 1013.4 |
| 20260901073958 | 52 | 296 | 5.0 | 13.0 | 0.00 | 0.00 | 0.00 | 74 | 1013.4 |
| 20260901073452 | 52 | 295 | 5.0 | 15.0 | 0.00 | 0.00 | 0.00 | 74 | 1013.4 |
| 20260901072946 | 52 | 296 | 6.0 | 15.0 | 0.00 | 0.00 | 0.00 | 74 | 1013.3 |
| 20260901072440 | 52 | 283 | 7.0 | 15.0 | 0.00 | 0.00 | 0.00 | 74 | 1013.3 |
| 20260901071934 | 52 | 286 | 8.0 | 15.0 | 0.00 | 0.00 | 0.00 | 74 | 1013.2 |
| 20260901071428 | 52 | 293 | 6.0 | 15.0 | 0.00 | 0.00 | 0.00 | 74 | 1013.3 |
| 20260901070922 | 52 | 286 | 9.0 | 13.0 | 0.00 | 0.00 | 0.00 | 74 | 1013.3 |
| 20260901070416 | 52 | 284 | 7.0 | 14.0 | 0.00 | 0.00 | 0.00 | 74 | 1013.4 |
| 20260901065910 | 52 | 288 | 7.0 | 14.0 | 0.00 | 0.00 | 0.00 | 74 | 1013.3 |
| 20260901065404 | 52 | 279 | 9.0 | 14.0 | 0.00 | 0.00 | 0.00 | 74 | 1013.3 |
| 20260901064858 | 52 | 286 | 7.0 | 14.0 | 0.00 | 0.00 | 0.00 | 74 | 1013.4 |
| 20260901064352 | 52 | 282 | 9.0 | 15.0 | 0.00 | 0.00 | 0.00 | 74 | 1013.5 |
| 20260901063846 | 52 | 286 | 9.0 | 17.0 | 0.00 | 0.00 | 0.00 | 74 | 1013.5 |
| 20260901063340 | 52 | 287 | 8.0 | 17.0 | 0.00 | 0.00 | 0.00 | 74 | 1013.5 |
| 20260901062834 | 52 | 282 | 9.0 | 17.0 | 0.00 | 0.00 | 0.00 | 74 | 1013.5 |
| 20260901062328 | 52 | 280 | 11.0 | 18.0 | 0.00 | 0.00 | 0.00 | 74 | 1013.4 |
| 20260901061822 | 52 | 280 | 11.0 | 18.0 | 0.00 | 0.00 | 0.00 | 74 | 1013.4 |
| 20260901061316 | 52 | 282 | 9.0 | 16.0 | 0.00 | 0.00 | 0.00 | 75 | 1013.3 |
| 20260901060810 | 52 | 280 | 9.0 | 15.0 | 0.00 | 0.00 | 0.00 | 74 | 1013.2 |
| 20260901060304 | 52 | 283 | 11.0 | 17.0 | 0.00 | 0.00 | 0.00 | 75 | 1013.2 |
| 20260901055758 | 52 | 278 | 9.0 | 17.0 | 0.00 | 0.00 | 0.00 | 75 | 1013.2 |
| 20260901055252 | 52 | 282 | 7.0 | 15.0 | 0.00 | 0.00 | 0.00 | 75 | 1013.2 |
| 20260901054746 | 52 | 279 | 8.0 | 14.0 | 0.00 | 0.00 | 0.00 | 75 | 1013.2 |
| 20260901054240 | 52 | 281 | 8.0 | 14.0 | 0.00 | 0.00 | 0.00 | 75 | 1013.2 |
| 20260901053734 | 52 | 282 | 10.0 | 15.0 | 0.00 | 0.00 | 0.00 | 75 | 1013.2 |